Theta_e
267 268 268 267 265 264 264 264 264 263 266 266 264 264 266 263 261 260 265 266 265 268 270 272 272 273 273 275 276 277 278 278 279 279 279 279 279 279 279 280 282 283 282 282 282 282 283 283 282 283 283 283 283 283 283 284 285 286 286 286 288 288 289 289 290 292 292 291 293 294 294 295 294 295 295 295 295 296 296 297 298 299 299 299 298 298 298
267 267 268 268 265 265 263 264 265 266 265 264 265 265 265 264 263 265 265 266 266 269 270 272 273 274 275 276 277 277 276 277 279 279 279 278 278 278 279 280 282 283 284 283 282 282 282 282 282 282 282 282 282 282 282 283 284 286 286 287 287 287 288 289 289 289 289 290 291 291 292 293 293 293 293 293 294 294 295 296 296 296 297 298 298 298 297
265 267 268 267 267 266 264 266 266 266 265 265 266 265 266 266 264 266 266 265 265 270 273 273 274 275 275 275 274 275 276 277 277 278 278 278 277 278 278 280 282 284 284 284 283 282 282 281 282 282 282 282 282 282 282 283 284 285 285 286 286 286 287 288 288 288 288 288 288 290 291 291 291 292 293 292 293 293 294 294 294 294 295 296 296 297 298
263 267 267 267 267 266 265 264 265 264 264 263 265 264 266 265 264 265 265 263 264 270 272 273 273 273 273 272 273 274 274 275 276 277 277 277 278 278 278 279 282 283 283 283 283 282 282 281 281 281 281 282 282 282 282 282 283 284 285 285 286 286 286 288 287 287 287 287 288 289 289 291 291 290 290 290 291 292 292 291 292 292 294 296 296 296 297
262 266 267 266 265 263 259 261 264 266 266 267 267 267 268 268 268 264 261 263 269 271 272 271 271 272 272 272 272 273 273 275 275 275 276 277 278 279 280 280 281 282 282 282 282 282 282 282 282 281 282 281 281 281 281 282 283 284 285 285 286 286 286 286 286 287 286 287 288 288 289 290 290 289 289 290 290 290 291 291 290 292 294 295 295 295 296
263 264 264 264 261 254 257 269 271 269 266 266 265 265 266 268 269 267 269 269 271 271 271 270 271 271 272 272 273 273 274 274 275 275 276 277 278 280 282 283 281 281 281 282 282 282 282 283 282 282 282 281 281 281 281 282 282 283 284 285 285 286 286 285 286 285 286 286 287 287 287 287 287 288 289 290 289 290 290 290 292 292 292 294 294 294 295
262 260 262 259 254 257 268 272 271 271 270 269 267 267 268 269 270 270 269 270 270 271 272 272 272 272 273 273 272 273 274 274 274 275 275 276 279 281 282 283 282 282 281 280 280 280 281 283 283 283 283 282 281 281 281 281 281 282 282 283 283 283 285 286 285 285 285 285 286 286 285 286 287 287 289 288 288 288 289 290 292 292 293 293 294 294 294
259 257 260 253 256 265 268 268 269 270 269 269 266 265 267 269 270 270 269 270 271 272 272 272 272 272 272 272 272 273 274 275 275 274 276 278 279 280 281 282 282 281 281 280 279 279 282 283 283 283 283 283 281 281 281 280 280 281 281 281 281 281 282 283 285 286 285 285 285 286 285 285 286 287 287 288 288 287 288 288 289 290 290 293 294 295 295
258 260 260 260 266 262 262 262 264 267 265 265 265 261 266 269 270 270 269 270 271 271 271 272 272 271 271 270 271 272 273 275 278 279 279 279 278 279 280 282 281 281 281 280 280 280 281 282 282 283 283 282 281 281 280 280 280 280 280 279 280 280 280 281 282 284 285 285 285 285 284 285 286 287 287 286 286 286 288 289 290 290 291 293 294 295 294
265 261 258 258 258 256 261 266 270 271 272 270 269 265 265 269 270 271 270 269 270 270 271 271 271 270 269 267 269 271 275 278 279 278 279 280 280 280 281 281 281 280 280 280 280 280 281 280 281 283 283 282 281 280 280 280 279 279 279 278 279 279 280 280 281 282 284 285 285 285 285 286 287 287 286 286 286 287 289 289 289 290 291 292 293 295 294
263 261 259 258 256 259 267 267 268 268 271 270 268 262 258 268 270 271 270 270 270 270 270 270 270 268 264 266 269 271 276 278 278 279 278 280 281 282 281 280 279 279 279 279 280 281 281 280 281 282 282 281 280 279 279 279 279 278 277 277 278 279 279 280 280 281 282 284 285 285 286 287 287 287 286 287 286 286 287 288 289 290 290 291 291 293 293
264 262 260 258 261 260 266 270 269 269 270 270 267 251 254 268 271 271 270 270 270 270 271 271 269 268 263 267 270 273 278 278 278 278 277 277 278 280 280 279 279 278 278 278 279 279 279 280 281 282 281 280 280 280 279 278 277 276 276 277 278 279 280 280 281 281 282 283 284 285 286 286 285 286 285 285 285 286 285 287 288 289 289 290 291 291 290
264 264 261 263 263 268 269 270 269 270 271 269 258 255 263 271 271 271 271 271 271 271 270 270 268 270 271 272 272 276 276 276 277 277 278 278 278 278 278 277 278 277 277 278 278 279 279 280 281 281 280 279 280 280 279 276 275 276 276 277 278 278 279 280 281 281 281 282 283 284 285 285 285 285 285 285 285 286 286 285 286 287 289 289 290 289 290
262 263 261 261 263 268 270 269 269 271 267 254 256 268 269 268 269 271 272 271 272 271 270 270 271 272 272 272 274 275 276 278 276 277 277 277 276 275 276 276 276 275 276 277 277 278 279 280 280 279 278 278 279 279 278 276 275 275 276 276 277 277 278 280 280 281 281 281 282 283 284 284 284 284 284 285 286 286 286 285 286 286 288 288 289 288 288
264 264 261 260 256 265 271 269 267 270 264 264 271 267 267 272 271 271 272 272 272 271 270 271 271 271 272 275 276 276 276 276 276 275 275 275 275 274 273 273 274 275 275 276 277 277 279 279 277 277 277 277 278 278 276 276 275 274 275 275 276 276 278 279 280 280 281 281 281 282 282 282 284 284 283 284 284 285 285 285 285 286 286 287 287 287 287
260 261 258 260 267 270 272 270 265 268 272 274 271 271 269 269 271 271 271 271 271 271 271 271 271 271 273 274 275 276 276 277 276 275 274 274 274 273 272 272 273 275 276 276 276 277 278 277 275 275 275 275 276 276 276 276 274 274 273 274 275 276 277 278 279 280 281 281 281 280 280 280 282 283 283 283 284 285 285 285 285 286 286 286 286 286 286
265 263 266 271 270 272 272 273 273 273 274 272 272 273 272 270 270 270 271 271 271 272 272 272 272 272 274 275 276 276 277 277 277 275 274 274 272 272 272 272 274 275 275 275 275 276 277 275 274 274 274 274 274 274 275 275 273 272 272 273 274 275 276 277 278 279 281 281 280 279 279 278 280 282 280 282 284 283 284 284 285 286 285 286 286 286 286
270 272 268 268 267 271 271 274 276 273 274 272 273 273 273 273 272 272 272 271 271 271 272 272 271 274 275 276 275 275 275 275 275 274 273 272 271 271 271 271 274 275 275 275 275 275 276 274 272 273 273 273 272 273 274 273 272 271 271 271 272 273 274 275 277 279 280 281 281 280 278 278 280 281 282 283 284 283 284 284 285 285 285 285 285 285 285
267 262 272 270 269 271 272 273 274 273 273 275 274 274 274 273 272 272 271 271 270 271 271 272 273 274 273 274 274 273 273 273 274 272 271 271 270 270 269 271 273 274 274 274 273 274 274 273 271 271 272 272 272 272 272 272 270 270 270 270 271 272 272 274 277 279 280 281 281 281 279 278 278 280 281 282 283 283 284 284 284 285 284 284 284 285 284
266 266 268 269 271 272 273 274 273 273 273 272 273 275 274 273 272 271 271 270 269 270 271 273 273 273 272 272 272 273 274 274 272 270 269 269 269 269 268 270 272 272 272 272 272 273 273 272 271 270 270 270 271 271 271 270 268 268 268 269 269 270 271 274 275 278 279 280 281 281 281 279 279 278 279 281 282 283 283 284 284 284 284 284 285 285 285
268 268 269 270 270 270 272 273 273 273 273 273 272 273 272 270 271 270 270 271 272 272 273 272 271 271 271 273 273 273 272 270 269 268 268 268 268 268 268 270 272 270 270 270 271 273 272 271 269 268 268 269 270 269 269 268 267 266 266 267 268 269 271 273 274 276 278 279 280 281 281 281 279 280 281 281 282 283 282 284 286 286 285 285 286 286 286
263 264 262 261 262 263 270 271 272 273 274 274 274 273 272 271 271 270 270 269 268 267 267 269 272 272 270 269 270 269 269 268 267 267 267 267 267 267 268 271 270 268 268 268 269 271 271 270 268 268 266 267 268 268 267 266 265 265 265 266 267 268 270 271 272 274 276 278 279 281 281 281 281 280 280 281 283 283 283 283 284 286 287 286 286 286 285
262 262 260 261 260 266 269 269 270 269 269 272 273 273 272 272 272 272 271 269 268 266 265 265 267 265 268 268 268 266 265 264 266 266 266 266 267 268 269 268 267 266 266 267 268 270 270 269 267 266 266 266 266 266 265 264 264 264 264 264 266 267 268 269 271 273 275 276 278 280 281 282 281 280 280 280 284 285 285 282 283 285 286 286 287 286 286
258 261 259 259 260 262 266 264 263 264 266 269 269 268 269 268 269 269 267 268 266 262 262 262 263 264 265 265 266 265 265 265 265 266 266 267 268 269 268 266 265 264 265 266 267 270 269 267 265 264 264 264 264 263 262 262 263 263 263 263 264 265 267 269 271 272 273 275 277 279 280 281 281 281 280 280 280 280 282 282 284 285 286 286 287 287 287
255 258 258 259 259 263 265 266 262 262 263 265 264 263 263 263 262 263 262 261 262 263 262 261 261 262 262 262 263 263 261 263 264 265 266 268 269 268 266 265 264 264 265 266 268 269 267 265 263 262 262 263 263 261 261 261 262 262 262 262 263 264 266 268 270 271 272 274 276 277 278 279 280 281 281 280 280 280 279 281 283 285 286 286 287 287 287
258 257 257 258 262 262 260 265 263 260 260 262 262 261 262 262 261 260 259 259 258 258 258 258 259 259 260 260 261 261 261 261 263 264 265 266 266 265 264 263 263 264 265 267 268 267 264 263 262 261 260 261 261 260 260 260 261 260 261 262 263 265 266 268 268 269 271 272 273 274 276 278 279 280 281 282 281 279 280 277 277 280 283 285 286 286 286
256 256 256 261 263 259 259 257 257 258 259 260 260 260 259 259 260 259 259 258 257 257 256 257 257 258 258 258 259 260 260 260 261 262 263 264 264 263 263 262 261 262 264 266 265 265 263 262 261 260 259 260 260 259 259 260 260 259 260 262 263 265 267 268 268 268 269 270 271 273 274 276 278 280 281 282 282 281 280 279 279 279 279 278 281 283 284
254 254 256 254 254 256 256 257 257 258 258 258 258 259 258 258 257 256 256 257 257 257 257 256 256 256 256 257 257 258 259 259 259 260 261 261 263 263 262 260 260 261 263 262 262 262 261 260 259 258 258 259 258 258 258 259 259 259 260 261 262 263 265 266 266 267 268 269 270 271 273 275 278 280 281 282 282 283 282 281 280 279 278 277 278 281 282
251 252 255 256 255 256 258 257 256 255 255 256 257 256 257 256 255 255 255 255 256 256 256 256 256 256 256 256 256 256 257 258 258 259 259 260 260 261 261 259 259 259 260 259 259 260 259 258 257 256 257 258 257 257 258 258 258 259 259 260 261 262 263 264 265 266 267 268 270 271 274 276 278 279 280 281 282 283 282 281 281 280 279 276 277 277 280
250 251 254 254 255 254 254 253 253 253 253 254 254 254 255 255 254 254 254 254 254 254 254 254 255 254 255 254 255 255 255 256 257 257 256 257 258 259 258 257 257 257 257 257 257 258 257 257 256 255 256 256 256 256 257 257 258 258 259 260 261 262 263 264 264 265 267 268 270 273 274 276 278 279 280 281 282 282 282 282 283 282 281 278 280 280 281
249 251 253 252 253 253 252 252 252 252 252 252 252 252 252 253 253 253 253 253 253 253 253 253 252 253 253 253 254 254 254 255 255 255 254 255 255 256 256 255 254 254 254 255 256 257 256 255 255 255 255 255 256 256 256 256 257 258 259 259 260 262 263 264 265 265 267 268 270 272 273 275 277 279 280 280 281 282 282 282 282 282 283 281 281 280 279
248 251 252 250 251 251 251 250 250 250 251 251 250 250 250 250 250 251 251 251 251 251 251 251 250 250 251 251 251 251 251 251 251 252 252 253 253 253 254 254 253 253 253 254 256 256 255 254 253 254 254 255 256 256 256 256 257 257 257 259 260 260 262 264 264 266 268 269 270 271 273 275 276 278 279 280 281 282 282 282 282 282 282 282 283 282 282
247 248 249 248 248 249 249 249 248 249 250 249 249 250 250 250 250 250 251 251 251 251 250 249 249 249 250 250 249 249 249 250 250 251 251 250 251 251 252 252 251 251 251 253 255 254 253 252 252 253 254 255 256 256 256 256 256 256 257 259 259 261 262 264 265 266 267 268 270 271 273 275 276 277 278 280 281 282 282 282 283 282 282 282 283 283 284
246 247 248 248 248 247 246 247 248 248 249 249 249 248 248 249 249 249 250 250 249 248 248 249 249 249 249 249 248 248 248 249 249 249 249 249 249 250 250 250 249 249 250 252 254 253 252 251 252 252 254 255 255 255 255 255 256 256 258 259 259 261 262 263 264 265 266 268 270 272 273 274 276 277 279 279 280 281 282 282 283 283 283 283 282 282 284
248 248 249 249 249 249 249 248 247 247 247 247 247 247 247 247 247 247 249 248 247 248 249 249 249 248 248 248 248 247 246 246 246 248 248 248 248 249 249 248 249 249 249 250 251 251 251 251 252 253 254 254 254 254 254 254 256 257 259 260 261 261 261 262 263 264 266 267 269 270 272 273 275 277 278 279 280 281 281 282 283 283 283 283 283 282 283
248 247 248 248 249 248 248 248 248 247 247 247 246 246 245 246 246 245 246 247 248 248 248 248 248 249 249 249 248 247 246 246 246 247 246 246 246 248 247 247 248 247 248 249 249 250 251 251 254 255 254 253 253 253 254 255 257 258 259 259 259 260 261 262 263 265 266 267 268 269 270 272 273 275 277 279 280 280 281 282 283 284 284 284 284 284 284
248 247 247 247 248 248 247 247 247 246 246 246 245 245 245 245 245 246 247 247 247 247 246 247 247 247 246 247 247 248 247 245 246 246 246 246 246 246 246 246 247 247 247 247 249 251 250 251 254 255 253 252 253 253 254 257 258 258 258 258 258 259 260 261 262 263 264 266 266 267 268 270 271 273 276 278 280 280 281 281 282 283 284 284 285 285 284
247 247 246 247 247 247 246 246 245 244 243 243 244 244 245 245 245 245 245 246 246 247 247 246 246 246 246 246 246 245 245 245 245 245 245 245 245 245 245 245 246 247 246 247 249 250 251 252 254 253 251 252 252 253 255 257 258 257 256 256 257 258 259 260 261 262 263 263 265 265 266 267 268 270 272 274 278 280 281 282 282 283 283 284 285 285 285
246 247 247 247 247 246 245 246 245 244 244 243 243 244 245 246 246 245 245 246 246 247 246 245 246 246 246 245 245 245 245 245 245 245 245 244 245 244 246 243 244 246 246 248 249 250 252 253 252 251 251 252 252 254 255 257 257 255 255 255 256 258 259 259 260 260 261 262 262 263 264 265 266 267 269 271 274 277 281 282 282 283 283 284 284 284 284
245 246 246 246 246 246 246 245 244 244 245 245 244 243 245 245 245 245 245 245 246 246 245 245 245 245 244 244 244 244 245 245 245 245 244 244 244 245 246 244 245 247 248 251 250 250 252 253 251 250 251 251 253 254 256 256 256 254 253 254 256 257 257 258 258 258 259 259 260 262 261 262 264 265 267 269 270 273 275 278 281 282 283 283 284 284 284
245 245 245 245 245 246 245 244 244 244 245 245 244 244 245 245 245 244 244 244 245 245 244 244 245 245 244 244 243 244 245 246 246 245 245 243 243 245 246 245 247 248 249 250 252 252 252 251 251 251 251 252 253 255 255 255 253 251 252 253 255 256 256 256 257 257 257 257 258 259 259 261 262 262 264 265 267 269 270 272 275 279 282 283 283 284 284
245 245 244 243 243 243 243 244 244 243 244 244 245 245 244 244 244 244 244 245 244 244 244 243 246 245 244 244 244 245 245 245 246 246 246 245 244 244 245 246 248 248 251 252 252 251 250 250 251 252 252 253 254 255 255 253 250 250 251 252 253 254 254 255 255 255 256 256 257 257 258 259 260 260 262 263 264 266 267 268 269 270 273 277 282 283 283
245 243 243 243 243 243 243 243 242 243 242 243 244 244 244 244 244 244 244 244 244 244 243 243 243 244 243 243 243 243 244 245 245 246 246 247 246 245 245 247 248 249 251 252 251 250 250 251 251 252 254 254 254 254 254 251 250 250 250 251 252 253 253 253 253 254 254 254 255 255 256 258 258 259 260 261 262 263 264 264 264 265 267 269 271 276 280
244 243 243 243 243 243 243 243 243 243 243 243 244 244 244 244 243 243 243 243 243 244 243 242 242 242 242 242 243 243 243 243 244 245 245 246 247 245 245 248 249 250 252 251 250 250 250 250 252 253 254 254 254 254 252 250 250 250 250 250 251 251 252 252 252 253 253 254 254 254 255 257 257 258 259 260 261 261 262 262 262 262 263 265 267 269 271
244 243 243 243 243 243 242 242 242 242 243 243 243 244 244 243 242 242 242 241 242 243 243 242 241 242 242 242 242 242 243 243 243 244 244 244 245 246 249 249 249 250 251 251 250 250 250 251 253 253 253 253 253 252 250 249 250 250 250 250 250 251 251 251 252 252 253 253 254 254 255 256 257 258 259 259 260 259 259 260 260 260 261 262 264 265 265
243 243 243 243 242 242 242 242 242 242 242 242 242 244 243 242 241 241 240 240 240 241 240 241 241 240 240 240 242 242 242 244 244 243 244 244 244 246 248 249 249 251 251 250 249 249 250 252 252 252 252 252 252 250 249 250 250 249 250 250 250 251 251 251 252 252 252 253 254 254 254 255 256 257 258 258 258 258 258 259 259 259 260 261 262 263 263
243 243 242 241 242 242 241 241 242 242 242 242 241 241 242 242 240 240 240 239 238 238 238 239 240 240 240 240 241 241 242 242 244 243 244 246 247 247 248 249 250 251 250 249 249 249 251 251 252 252 252 251 251 249 248 249 249 249 249 250 250 250 251 251 251 251 252 252 254 254 255 255 255 256 257 257 257 257 258 258 258 258 259 260 260 261 261
241 241 241 240 240 240 240 241 241 241 241 240 239 240 240 240 239 238 240 241 240 239 240 238 241 239 240 240 240 240 240 239 242 243 244 245 245 245 246 245 249 250 250 249 249 249 251 251 251 251 251 251 249 248 248 248 249 249 249 250 250 250 251 251 251 251 251 252 253 252 253 253 254 255 256 256 257 257 257 257 257 258 258 258 259 259 260
240 240 239 239 239 239 239 240 241 241 241 240 239 241 241 240 239 240 241 241 240 241 240 238 238 239 239 242 241 242 243 243 241 242 245 245 245 245 246 248 249 250 249 247 247 247 250 251 251 251 251 250 248 248 248 248 249 250 250 250 250 250 251 251 251 252 251 252 252 252 253 253 254 254 255 255 256 257 257 257 257 258 258 258 258 259 259
239 239 240 240 239 239 239 239 240 238 240 239 240 240 241 238 241 242 242 241 241 242 240 240 239 240 242 242 242 241 242 243 243 244 244 245 243 245 246 247 248 249 249 247 245 247 248 250 250 250 250 248 248 249 248 249 248 249 249 250 250 250 251 252 252 253 252 252 252 252 253 253 253 255 255 255 256 256 257 257 257 257 258 258 258 258 259
239 240 240 240 238 238 236 236 238 239 238 239 238 240 240 239 239 241 240 242 240 242 242 241 240 242 243 243 243 243 243 243 243 246 244 245 243 247 248 247 247 248 248 247 246 246 246 247 248 249 249 248 248 248 249 249 248 249 249 249 249 250 250 251 251 251 251 252 252 252 253 253 253 253 254 255 255 256 256 257 257 257 257 257 258 258 259
237 237 238 238 238 238 237 238 238 240 238 239 239 240 241 240 239 240 241 244 241 240 240 240 243 243 243 242 244 244 244 245 243 243 245 245 245 243 246 247 245 246 245 246 246 246 246 247 249 250 250 248 248 248 249 250 249 249 249 249 250 249 250 250 251 251 251 251 252 252 253 253 253 253 254 254 255 255 256 256 256 257 257 257 258 258 258
Wind_Speed
18 15 15 9 6 8 8 8 7 9 9 7 9 10 10 6 5 13 14 13 16 17 14 13 17 15 15 13 12 10 10 12 10 9 11 11 10 13 13 12 10 11 12 11 11 13 12 14 16 16 14 15 15 14 12 12 12 11 8 4 2 2 2 3 5 5 4 4 4 5 5 5 6 6 7 7 7 8 9 9 9 10 10 11 11 10 9
15 16 14 10 12 8 3 7 12 12 10 12 12 12 10 8 11 15 17 15 18 17 17 15 18 17 13 12 10 10 11 12 10 11 12 11 11 11 13 12 11 10 11 10 10 11 12 14 15 16 15 15 14 14 14 13 12 11 8 6 3 2 3 4 3 2 3 3 4 4 4 5 5 6 7 7 8 8 8 8 8 8 9 9 10 11 10
12 14 12 11 11 10 14 16 16 13 11 12 14 14 14 12 14 18 19 16 16 17 17 18 17 14 10 10 11 14 10 9 11 13 12 12 12 11 10 10 11 11 10 10 10 11 12 12 13 13 13 13 13 14 14 14 13 12 9 7 5 3 3 1 1 1 2 3 3 4 5 5 5 6 7 6 7 8 8 8 9 8 9 10 9 10 11
11 11 13 17 16 15 16 17 14 12 14 14 15 14 17 13 16 18 13 8 12 20 15 6 7 10 10 9 10 11 9 8 9 11 13 15 15 13 9 5 10 10 9 11 11 11 12 11 11 12 14 14 13 14 13 14 14 11 9 6 5 5 4 1 2 3 3 3 4 4 4 6 6 6 6 7 7 8 8 8 7 7 9 10 10 9 9
13 11 14 16 11 6 8 14 19 21 22 19 17 12 9 13 17 13 9 14 17 14 9 9 9 8 11 8 8 9 8 7 8 10 12 14 15 14 11 6 4 8 9 9 10 11 10 11 11 11 11 12 13 13 13 12 11 10 10 8 6 6 5 3 2 1 3 4 4 4 5 6 6 6 6 6 6 7 8 7 7 9 9 9 9 8 9
9 9 6 6 7 11 15 15 19 21 21 21 18 16 16 16 13 12 13 13 10 9 13 11 11 11 12 9 6 5 7 8 9 9 11 13 13 11 9 5 4 4 6 9 9 9 10 10 9 9 7 9 10 9 9 9 10 11 11 11 9 9 7 5 4 2 2 3 4 4 3 3 4 5 6 8 7 7 7 7 8 8 7 9 8 9 10
6 5 8 6 16 16 13 11 6 7 12 13 15 20 19 16 13 15 14 12 11 16 15 11 10 11 12 7 7 8 7 6 7 9 10 12 8 5 6 8 8 7 6 6 9 13 12 11 10 10 10 10 10 10 9 10 10 11 10 10 11 11 10 9 6 4 3 2 3 3 3 3 4 5 7 6 6 6 7 8 9 9 9 8 8 8 7
5 2 8 7 12 6 3 3 4 4 3 6 6 10 15 16 16 15 14 15 17 17 15 13 10 9 7 5 5 6 7 7 7 6 6 4 6 7 6 7 8 9 9 9 7 7 10 11 9 9 10 10 10 10 7 8 9 10 10 10 10 10 10 10 9 7 4 4 2 1 3 4 4 5 6 7 8 6 6 5 5 5 5 6 8 9 8
11 7 12 17 1 6 2 3 3 8 9 10 14 12 14 12 11 12 14 16 16 15 13 13 11 2 1 6 9 3 7 4 1 0 2 2 3 4 5 5 7 7 8 9 9 7 5 6 9 10 10 9 9 9 10 10 9 10 11 12 12 11 9 9 9 9 7 4 3 3 3 4 5 6 6 6 5 5 6 6 7 6 7 6 6 7 8
12 12 9 4 5 16 9 7 6 10 13 6 5 3 11 5 12 15 16 17 16 14 13 10 7 1 1 8 9 2 1 2 1 1 2 3 3 3 4 6 6 7 8 9 9 8 9 6 6 9 10 9 9 8 10 10 11 11 12 13 12 11 11 10 10 9 8 6 4 3 4 6 7 6 5 4 4 6 8 8 7 6 6 5 5 6 8
9 12 11 10 12 13 8 11 10 5 7 9 7 5 8 9 12 16 16 15 15 13 10 11 3 3 3 8 7 5 3 3 3 4 3 2 3 4 5 6 8 9 9 9 10 9 9 10 11 9 10 10 7 8 9 10 10 12 13 12 13 13 13 11 10 9 8 6 5 4 5 6 6 6 6 7 5 6 6 6 7 6 6 6 5 5 6
11 10 11 12 6 7 12 13 6 8 11 12 9 1 8 14 20 12 12 15 14 10 10 8 4 7 5 7 8 3 6 5 4 3 2 2 3 4 4 6 6 8 9 8 9 11 12 12 12 12 11 9 8 7 8 8 11 12 12 12 12 11 11 11 10 10 8 6 5 4 6 5 4 5 3 3 5 5 4 5 6 6 6 6 7 6 5
14 14 9 5 6 3 5 13 9 11 11 10 6 12 13 17 4 10 14 12 11 11 9 6 7 8 9 8 4 4 4 1 3 1 1 1 1 2 3 5 6 6 6 6 7 9 9 11 11 12 12 10 9 9 9 10 12 12 12 12 12 11 12 12 12 11 9 7 7 5 4 5 4 3 3 4 5 6 6 4 4 5 6 6 6 6 5
12 10 10 10 6 6 9 5 16 13 9 5 11 16 8 7 9 9 11 13 12 8 8 7 8 7 5 5 3 3 4 5 1 1 2 0 2 3 3 4 5 7 7 7 9 9 10 12 12 12 11 11 10 10 9 10 12 12 12 12 11 11 12 11 11 11 11 10 7 5 4 3 3 4 3 4 5 6 5 6 6 6 6 5 5 5 4
7 7 9 8 12 3 17 11 5 8 8 10 14 3 1 7 8 12 10 10 9 8 8 8 8 6 3 5 6 5 3 3 3 3 3 1 1 3 5 5 4 5 6 7 8 9 9 11 12 12 12 11 11 11 10 11 11 11 11 11 12 12 11 11 12 12 12 12 10 6 4 3 4 4 3 4 4 4 6 7 8 8 7 6 5 5 4
6 9 9 9 5 11 20 20 13 13 19 14 5 7 3 4 7 9 8 6 7 8 8 7 7 6 5 3 4 3 3 3 4 4 3 2 1 0 2 3 4 5 5 6 7 8 7 9 11 11 12 11 11 11 11 11 11 11 11 11 11 11 10 10 11 11 12 12 11 7 5 3 3 3 3 4 4 6 6 6 7 8 6 6 6 6 6
9 9 13 14 2 6 13 20 17 16 20 5 5 5 7 6 4 4 7 7 6 8 8 5 6 4 5 6 6 6 6 5 4 7 6 4 3 1 1 3 4 5 5 6 6 7 7 9 9 10 11 11 12 12 12 12 13 13 13 12 10 11 11 11 10 10 11 10 10 9 6 3 3 3 3 3 5 4 5 5 6 7 7 7 8 8 7
6 8 2 3 4 11 13 13 13 6 7 2 5 7 6 5 5 7 7 5 7 6 6 6 4 6 6 6 4 4 3 2 1 5 7 5 3 1 1 2 5 5 5 5 6 7 7 9 9 9 10 10 12 12 12 12 13 13 13 12 11 11 10 10 10 10 11 11 10 10 9 4 3 3 4 5 5 5 5 6 6 7 7 7 7 7 7
6 7 9 10 3 7 15 16 9 2 3 9 8 5 6 5 6 5 5 5 6 6 6 7 7 7 5 6 4 2 3 3 4 4 5 4 3 2 3 4 5 5 6 6 7 7 6 7 8 9 9 9 10 11 11 12 13 13 11 11 11 9 10 10 9 9 10 9 10 10 9 7 4 3 3 4 4 5 6 6 6 6 6 7 7 7 7
5 5 3 4 5 7 7 10 10 11 5 1 3 5 4 5 5 5 4 4 3 5 5 7 7 4 2 3 1 1 3 5 5 4 4 3 3 3 2 3 4 4 6 7 8 8 6 6 7 8 9 9 10 12 11 11 12 12 11 10 11 11 11 10 9 9 8 11 11 9 9 8 7 5 4 4 5 7 7 7 7 7 7 8 9 9 9
5 8 3 8 3 1 5 7 3 2 4 4 4 3 3 4 5 4 3 2 3 5 3 3 2 1 0 2 3 3 4 5 5 6 5 4 4 3 4 4 5 7 6 6 8 8 6 6 7 7 7 8 10 11 11 11 13 12 11 12 11 10 10 9 8 8 8 8 9 9 9 9 6 5 5 5 6 6 5 6 8 9 8 7 8 8 8
4 1 4 13 2 2 2 3 2 2 1 4 6 4 3 3 5 4 6 6 5 6 6 3 2 2 2 1 4 7 6 6 6 6 5 4 4 4 4 4 7 6 6 6 7 7 6 6 6 8 7 8 9 9 10 11 12 12 13 12 11 9 9 9 9 9 8 8 8 9 8 9 10 8 6 8 7 6 6 7 10 9 6 7 7 7 7
1 7 8 9 8 9 10 9 9 9 9 7 0 1 1 1 1 2 7 9 6 9 10 9 7 4 5 3 6 8 6 5 5 5 5 4 2 5 6 6 7 6 7 6 6 6 6 7 8 8 9 9 9 10 11 11 12 12 12 11 9 9 9 8 10 10 9 8 8 8 8 9 8 8 9 5 7 10 10 7 8 11 10 8 7 10 8
12 9 12 12 8 8 9 12 11 12 11 7 10 10 9 8 7 8 9 6 9 7 8 10 10 8 8 6 6 8 7 7 6 7 5 3 4 6 7 7 7 7 7 7 8 7 7 8 8 8 9 8 7 9 11 12 11 11 11 10 9 9 9 9 10 10 9 9 9 9 9 9 8 8 7 8 8 5 7 9 9 10 11 12 10 9 12
9 14 15 14 13 12 9 3 9 12 14 13 10 11 11 10 11 10 13 12 11 9 8 9 10 10 8 7 7 7 5 7 7 5 4 5 6 7 8 8 8 7 8 7 7 6 8 10 9 8 8 10 9 9 10 11 11 12 12 11 11 10 9 10 10 10 9 9 9 9 9 9 9 8 7 6 7 9 5 3 5 8 10 11 12 11 11
12 14 16 16 8 7 11 5 9 18 16 14 11 11 13 13 13 16 15 12 10 10 10 9 8 9 8 7 7 6 8 8 6 7 6 8 8 8 9 9 8 8 8 8 8 7 8 9 10 9 9 9 9 11 11 11 11 11 11 10 11 9 10 11 10 9 8 9 9 9 8 8 8 9 8 6 6 6 7 7 4 3 3 6 8 10 10
13 14 16 9 2 11 15 14 8 13 13 13 13 12 12 11 12 12 11 12 11 10 11 10 8 6 6 6 6 8 7 6 6 8 7 7 7 7 7 7 9 9 9 8 8 9 9 9 9 9 9 9 10 11 12 12 11 10 10 11 9 11 15 12 9 9 8 8 8 9 9 8 8 8 8 8 6 5 5 6 5 6 5 4 4 7 7
11 13 12 9 8 9 10 10 10 10 12 13 12 11 9 8 11 13 14 13 12 9 10 10 9 9 8 8 7 7 8 10 9 8 8 9 8 7 7 9 10 8 7 7 7 8 8 9 9 9 8 9 11 12 12 12 12 11 10 10 10 9 9 11 9 9 9 9 9 9 9 8 8 8 8 9 8 5 4 4 5 6 5 4 3 4 7
13 13 12 9 9 9 6 5 10 13 13 13 11 11 10 12 13 13 12 11 9 8 10 10 9 8 7 7 8 8 8 8 8 8 8 7 7 8 8 9 8 5 5 5 6 7 8 8 8 10 9 10 12 12 12 12 11 11 11 10 10 9 9 9 9 10 10 10 9 9 10 10 9 8 7 7 7 6 5 4 4 5 6 4 1 1 1
14 13 10 10 10 10 10 13 13 13 12 12 13 13 12 11 12 11 10 11 10 10 9 8 7 8 7 7 7 6 6 6 5 5 6 6 7 7 8 8 6 3 5 7 8 8 8 9 9 9 9 11 12 12 12 11 10 11 11 11 10 9 9 11 11 11 10 9 10 13 10 9 8 7 7 6 6 6 5 4 4 4 5 3 3 3 4
16 13 5 9 10 12 14 12 10 10 11 13 12 12 13 13 12 10 10 9 9 8 9 8 8 7 8 8 7 6 5 4 5 5 5 6 6 7 8 8 8 7 7 8 8 8 9 8 8 8 10 11 11 10 11 10 10 10 10 9 9 13 17 19 14 11 10 10 10 9 9 9 8 9 8 7 6 5 5 5 4 4 4 4 4 4 4
16 9 5 10 9 11 11 11 10 11 12 11 14 16 14 14 13 12 10 9 8 8 8 8 9 9 8 7 6 6 5 4 3 5 5 6 6 7 7 7 6 6 7 7 6 7 8 8 8 9 10 11 10 10 10 10 10 9 8 9 10 10 11 17 11 10 10 10 10 9 9 9 8 8 8 7 7 6 6 5 5 4 4 4 4 4 4
14 12 11 16 14 13 11 11 11 12 12 13 11 9 9 9 8 8 8 7 7 7 7 7 7 7 6 5 6 7 6 4 3 5 7 8 7 7 7 6 5 6 5 5 5 6 7 8 9 9 10 10 10 10 10 9 9 9 9 8 8 10 11 11 12 10 9 10 9 9 9 9 9 8 8 8 7 7 6 6 5 5 5 5 5 5 5
9 6 7 7 7 8 10 11 9 8 8 8 8 9 9 9 8 7 7 7 7 7 7 7 7 7 5 5 6 7 8 8 7 8 8 8 8 8 7 6 5 5 5 5 4 5 6 8 8 8 9 10 10 9 9 9 9 9 9 9 8 9 9 10 11 9 8 9 9 11 10 11 10 8 8 8 7 7 7 6 5 5 5 5 5 5 6
7 7 6 6 6 6 6 6 7 8 8 8 8 8 7 7 7 7 7 7 7 7 7 7 7 6 5 4 6 6 7 6 4 6 7 7 7 9 7 7 6 7 6 5 3 5 7 8 9 10 10 10 9 8 8 9 8 8 9 9 9 9 10 10 9 9 9 9 9 9 10 10 10 10 10 9 7 7 6 6 5 5 5 5 5 4 5
7 6 6 6 6 7 6 6 6 7 7 6 5 5 5 6 5 6 7 7 6 7 7 7 7 5 6 6 6 6 6 5 4 6 6 7 7 7 7 6 8 9 9 7 3 7 9 8 12 17 12 9 9 8 9 9 8 7 8 9 9 9 10 10 10 10 9 9 9 9 9 12 13 12 11 9 8 7 6 6 6 5 5 5 5 5 4
7 6 6 6 6 7 7 6 6 6 6 5 5 5 6 5 5 5 4 4 5 5 6 6 6 7 6 6 3 4 4 3 4 4 6 6 6 6 6 5 8 9 9 9 9 11 10 9 15 19 11 7 8 9 10 16 8 8 7 7 7 8 9 9 9 9 10 9 9 9 10 10 9 10 11 10 8 7 6 6 6 5 5 5 5 5 5
7 7 7 7 7 7 6 6 4 4 4 6 5 4 6 6 6 5 5 4 5 6 5 5 5 3 3 3 3 4 5 5 6 6 6 7 5 6 5 5 7 7 7 7 11 10 8 12 17 12 8 8 8 9 12 17 16 9 5 6 6 7 8 8 8 9 10 10 11 9 8 8 9 9 9 10 9 9 7 6 6 6 5 5 5 6 6
9 7 6 7 6 5 6 6 6 4 4 6 5 5 6 6 5 5 5 5 5 5 5 6 5 5 8 8 8 7 7 7 7 8 9 9 6 4 4 2 1 4 5 8 9 8 9 11 11 9 8 8 10 10 11 15 16 8 7 6 6 5 6 6 6 8 8 10 9 10 9 9 8 9 9 9 10 10 9 8 7 6 6 6 6 6 6
7 8 8 8 6 7 6 6 5 5 4 4 6 7 7 6 6 5 5 6 6 6 7 7 7 8 8 9 8 7 7 7 7 8 10 7 4 5 4 1 2 6 7 11 8 6 11 16 11 7 8 8 8 8 9 13 13 8 7 6 6 6 6 6 6 6 6 7 8 10 10 10 9 9 9 9 9 9 9 9 8 6 6 6 6 6 6
8 8 8 7 7 7 7 6 7 7 5 6 6 6 6 6 6 7 8 8 8 8 7 7 7 7 8 7 7 7 6 6 7 10 7 4 4 6 7 7 7 8 8 9 8 9 11 10 9 9 8 8 7 10 9 11 8 6 7 7 7 7 7 6 6 6 6 6 7 6 8 9 9 10 9 9 8 8 8 8 9 9 7 6 6 6 6
7 6 6 6 6 6 6 6 6 7 6 5 5 5 6 5 5 6 6 6 6 6 7 7 8 7 6 6 6 6 6 7 8 9 8 6 4 5 8 7 7 7 12 12 9 9 8 8 8 7 8 9 8 14 15 9 7 7 6 6 6 6 6 7 6 6 6 6 5 5 6 7 7 8 9 9 8 8 8 8 8 8 9 9 6 5 6
7 7 7 7 7 7 6 7 6 7 7 4 5 5 5 4 5 5 6 6 6 6 7 7 7 8 7 8 8 8 7 8 8 9 8 6 3 1 1 7 7 8 14 9 8 7 7 7 8 6 13 12 10 15 13 7 7 6 6 6 7 6 6 6 6 6 6 6 6 6 6 6 7 7 8 8 8 8 8 8 8 8 9 9 9 8 4
8 6 6 7 7 7 6 6 6 5 5 6 6 5 6 7 6 7 7 7 7 7 7 8 8 7 7 7 6 7 7 7 6 6 6 6 5 1 1 6 7 9 13 9 7 7 7 7 7 12 16 16 16 14 8 6 6 6 6 6 7 7 7 7 7 7 7 7 7 7 7 7 7 7 7 7 8 8 8 8 8 8 8 9 9 8 6
8 6 6 7 7 6 6 6 6 7 6 6 5 5 7 8 9 8 7 7 7 6 6 5 6 6 6 6 6 5 5 5 4 5 7 7 8 5 6 9 9 7 9 12 7 7 7 7 12 17 14 16 15 13 7 6 7 7 7 7 7 7 7 7 7 7 8 7 7 7 8 7 7 7 8 8 9 8 8 9 9 9 9 9 9 8 8
8 6 5 6 6 6 5 5 5 4 4 4 4 5 7 7 7 7 7 7 6 5 4 5 4 5 4 5 5 5 4 5 5 2 2 1 3 6 8 9 8 8 12 12 6 7 6 14 16 15 15 15 14 8 7 7 7 6 7 7 7 8 7 7 7 8 8 8 8 8 8 8 8 7 7 7 8 7 8 10 8 8 8 8 8 8 9
7 6 6 6 6 6 5 4 3 3 5 8 9 8 8 8 7 5 6 5 5 3 4 4 4 4 4 3 4 6 7 7 6 2 3 5 5 6 7 10 9 11 9 7 7 6 8 9 11 15 15 15 12 7 7 7 7 7 7 7 7 7 7 7 8 8 8 8 9 9 9 9 8 8 8 8 9 8 8 8 7 8 7 8 9 10 10
7 8 7 7 7 7 7 8 8 9 9 8 5 6 6 7 7 5 5 5 8 6 5 4 5 4 5 5 3 1 1 1 5 6 4 7 6 6 6 5 7 11 10 8 8 8 14 15 15 15 15 13 8 7 7 7 7 7 7 8 8 8 8 8 8 8 8 8 9 9 9 9 9 8 8 8 8 8 7 6 7 8 7 8 8 8 9
7 7 7 6 5 8 8 8 8 8 7 8 6 7 6 8 7 5 6 8 9 7 5 6 8 7 5 6 5 5 4 1 1 3 6 6 5 6 6 7 10 10 8 6 7 6 11 15 14 14 14 10 7 7 7 7 7 8 8 8 7 8 8 8 8 8 8 9 9 9 8 9 8 8 8 8 8 8 8 8 7 8 8 7 7 8 7
5 5 6 7 6 6 7 6 6 6 6 6 6 6 6 5 7 7 6 6 6 7 5 6 4 5 5 5 5 4 5 4 4 3 4 5 5 6 6 6 6 9 8 6 5 6 8 12 10 11 10 7 7 7 7 8 7 8 7 8 8 7 9 10 9 11 9 9 9 9 9 9 8 9 9 8 8 9 9 8 8 10 16 10 7 8 9
5 5 5 6 4 3 3 2 2 4 3 5 4 4 3 4 3 5 4 6 5 7 6 6 4 5 6 6 5 5 5 5 5 5 5 6 4 6 7 6 6 6 7 6 6 6 6 6 6 8 7 7 7 7 7 7 7 8 8 8 8 8 8 10 9 9 9 9 8 9 9 9 9 9 8 8 9 9 9 9 9 9 9 9 10 9 9
4 4 4 4 4 3 3 3 3 3 3 4 4 5 5 4 4 5 5 5 6 5 5 5 7 6 6 6 6 6 6 6 6 5 6 6 5 5 7 7 6 7 7 6 6 6 6 6 7 8 8 7 6 6 7 9 7 7 7 9 7 8 9 9 9 8 8 9 9 9 9 9 8 9 9 9 9 9 9 9 9 9 9 9 9 9 9
Wind_Direction
234 234 233 181 163 199 194 183 188 190 200 200 195 225 230 229 224 255 261 255 266 277 279 285 279 287 293 304 317 315 316 312 303 310 320 322 326 328 326 319 321 328 332 333 341 341 340 341 344 342 343 347 349 348 347 341 334 329 320 312 270 262 242 216 216 207 197 196 194 187 188 185 182 179 177 177 175 175 181 182 180 181 178 175 171 175 171
232 234 230 209 195 218 212 228 229 233 221 214 217 232 236 214 232 244 256 263 261 267 273 272 274 278 288 297 302 303 304 300 308 315 313 318 320 321 318 317 320 327 330 335 339 339 341 344 343 343 342 345 346 345 343 341 337 328 330 313 290 234 223 242 253 234 199 183 180 173 171 179 180 174 174 175 174 175 182 180 176 175 174 175 172 170 166
238 235 237 237 227 223 238 236 234 236 236 239 230 233 242 235 245 250 252 259 273 271 258 260 272 284 286 286 289 285 291 303 307 307 312 316 314 308 308 313 320 326 332 336 339 343 342 342 341 339 337 335 336 344 347 345 340 330 324 313 309 291 264 290 265 174 166 182 162 170 179 171 172 174 177 172 174 175 176 176 175 171 168 170 175 172 168
239 225 227 229 226 225 234 249 242 231 232 237 232 223 223 210 228 241 248 259 259 261 263 260 258 273 272 273 279 289 295 297 305 309 310 312 309 306 302 305 321 330 336 339 342 340 337 337 338 341 338 335 337 344 344 346 340 331 329 328 328 324 320 303 175 184 187 169 175 184 168 178 175 177 170 172 176 176 171 171 172 163 171 175 172 172 169
235 227 217 226 223 224 256 244 238 229 229 227 236 234 229 214 216 234 230 234 237 255 278 282 272 263 277 271 263 277 292 298 301 302 302 299 300 299 301 321 342 334 335 333 335 336 334 335 337 335 333 331 336 334 339 338 336 351 354 347 343 338 333 334 301 203 171 178 189 186 193 181 175 164 167 171 173 171 177 171 156 170 177 169 175 169 165
231 220 182 154 142 211 225 228 224 223 228 231 231 238 228 224 200 222 222 241 256 264 263 255 267 274 266 266 268 270 287 294 293 289 288 289 289 299 319 347 344 335 331 331 336 335 326 325 330 324 327 324 321 320 325 336 349 357 9 11 4 350 343 341 334 302 226 194 193 200 191 169 158 162 167 180 180 177 166 162 168 168 169 174 169 171 174
224 117 134 165 217 223 229 224 227 204 223 231 224 234 236 235 219 228 240 238 246 249 252 254 255 260 272 293 291 291 279 272 273 273 279 288 313 337 342 340 340 340 337 334 336 336 337 335 329 332 335 340 331 333 346 353 358 359 7 11 14 6 359 349 341 333 306 269 230 190 174 169 168 174 181 178 174 173 166 169 170 176 175 174 176 171 168
38 114 183 205 229 230 217 182 99 129 161 205 201 251 246 231 219 217 230 236 241 249 257 260 254 258 284 302 263 260 270 260 272 286 287 309 335 338 342 340 330 334 336 332 334 321 320 323 330 336 335 335 337 335 337 1 359 2 -0 10 8 3 -0 354 345 328 313 297 282 198 176 172 180 186 183 178 175 171 165 174 174 160 169 169 166 170 171
215 183 208 225 328 342 201 136 163 175 191 178 179 221 243 214 210 199 219 229 237 244 249 253 264 257 343 293 280 230 254 275 270 241 309 317 306 311 318 329 324 326 324 328 325 316 310 319 328 338 335 338 338 338 351 358 359 1 2 5 2 355 347 346 341 332 315 292 267 214 188 187 199 197 188 183 175 159 160 171 169 172 174 176 172 167 160
198 221 231 245 246 244 215 189 217 201 220 182 175 154 268 226 194 203 209 224 233 237 247 254 248 105 11 286 277 253 255 189 210 267 285 302 301 307 310 325 325 330 331 328 325 323 322 330 339 336 339 341 342 349 353 355 359 360 5 0 349 345 342 338 334 329 318 295 271 237 201 204 205 209 203 191 176 171 169 168 178 180 168 168 171 170 166
194 217 229 219 225 242 164 196 205 190 177 142 123 127 251 258 213 207 203 218 226 227 229 243 152 128 209 255 268 250 205 226 206 215 251 279 309 321 329 338 333 335 333 327 319 325 331 342 347 345 343 343 347 359 355 355 358 2 1 351 347 341 335 331 328 326 321 302 269 246 231 226 215 202 195 192 177 174 176 169 172 162 164 166 163 167 175
214 210 221 231 217 256 172 180 174 158 130 129 101 131 257 250 238 191 184 208 217 221 222 223 170 179 214 247 256 205 190 204 215 183 215 290 305 320 338 342 336 330 319 327 339 346 348 343 337 346 350 345 349 1 2 355 1 1 351 342 331 327 328 330 328 327 329 319 283 255 246 246 231 222 188 154 162 171 167 168 165 165 162 165 171 176 165
222 219 237 242 257 106 186 164 147 136 136 116 159 220 234 248 256 154 186 198 210 211 218 191 197 210 204 217 214 163 195 223 275 261 160 180 270 318 343 329 338 327 337 343 341 342 341 340 345 350 349 345 346 356 1 6 5 352 339 332 328 329 330 330 332 330 331 331 309 278 254 248 240 208 176 179 166 171 168 153 143 152 165 168 172 175 170
209 210 226 234 251 198 142 105 139 150 110 185 208 228 218 100 144 168 165 192 205 193 205 194 207 223 199 222 197 183 192 199 203 143 173 157 343 338 3 349 348 341 339 347 348 351 351 356 355 351 347 345 343 351 2 6 355 341 337 331 328 331 330 333 333 333 331 330 321 293 274 238 210 210 203 183 184 177 161 154 157 162 162 166 172 168 170
215 203 228 234 239 143 136 143 100 182 182 219 218 116 90 154 142 163 189 184 196 176 210 213 211 227 188 178 194 208 198 213 176 158 135 169 242 317 338 342 347 347 342 355 358 352 354 2 356 349 346 347 347 349 357 356 347 338 333 332 330 326 328 336 338 334 331 329 328 321 291 246 213 213 198 179 180 174 164 160 159 160 163 163 163 168 171
211 202 210 235 203 180 165 150 176 198 210 217 135 118 107 158 154 160 170 195 184 183 192 202 214 220 210 217 210 198 210 218 136 142 140 140 124 301 316 306 323 350 350 357 353 353 2 7 359 352 351 347 346 349 349 350 342 337 338 334 331 334 334 333 335 336 331 328 326 323 302 272 234 210 191 191 177 178 179 173 167 161 162 161 165 175 183
197 207 224 235 234 153 172 180 207 202 206 73 143 122 150 135 201 153 143 193 201 188 191 190 186 208 213 212 191 176 204 201 185 158 154 154 157 199 301 318 353 360 360 353 353 353 7 15 3 354 353 347 345 347 348 350 342 339 335 332 333 335 338 337 335 331 329 329 329 328 317 282 242 219 195 185 182 194 176 182 176 171 169 168 178 184 186
235 249 125 89 140 161 194 210 218 197 199 200 124 155 163 197 155 171 182 180 182 194 181 167 200 206 204 200 200 198 183 165 135 111 111 104 108 88 358 348 8 356 0 357 359 357 9 17 5 353 355 351 347 341 342 347 342 336 332 331 335 336 334 332 330 330 332 331 332 334 325 299 262 231 197 193 194 186 189 189 186 179 171 174 181 183 194
187 239 221 219 204 188 187 210 227 273 207 194 182 181 185 172 170 177 200 164 173 177 160 183 188 204 203 194 202 148 135 160 159 128 111 105 98 71 30 357 4 3 8 1 357 356 6 26 10 353 351 347 343 342 342 347 340 334 330 330 328 329 331 326 327 333 336 338 334 332 336 320 291 268 219 201 200 193 194 188 187 185 175 177 183 190 198
220 253 301 313 151 194 210 200 202 224 233 203 195 200 176 148 176 180 167 119 125 138 180 202 189 190 146 179 255 153 168 163 136 115 96 81 67 42 22 357 19 18 13 1 350 351 -0 26 15 359 350 345 346 345 345 349 339 333 330 336 333 327 327 330 329 333 333 333 333 330 330 329 309 291 262 218 207 202 194 191 185 195 188 187 191 191 198
287 310 346 9 45 41 207 221 248 223 173 156 196 194 150 142 137 133 131 116 157 167 172 137 138 146 158 182 200 157 111 91 69 58 45 34 34 24 20 18 31 23 2 357 348 348 357 26 11 0 355 348 348 348 348 347 341 335 332 330 325 321 327 329 332 334 335 330 330 329 324 324 305 264 251 240 228 231 219 201 197 191 193 206 203 202 193
252 286 9 344 352 325 272 268 334 18 335 179 165 145 121 119 134 157 120 77 60 69 37 25 97 135 89 54 109 100 104 101 97 78 53 19 4 15 13 31 35 15 -0 349 341 344 9 17 6 359 355 355 354 355 351 346 341 336 334 329 328 328 330 332 328 332 334 333 328 327 326 324 322 311 258 241 238 230 239 218 223 236 214 208 204 189 194
0 5 349 359 298 288 4 3 22 13 2 334 38 102 88 173 163 137 122 119 74 49 34 28 39 60 83 87 103 101 93 86 84 89 84 56 358 25 32 31 19 11 354 348 339 359 17 13 5 355 353 353 356 359 356 346 343 337 334 331 327 325 329 330 331 329 328 326 325 323 324 324 321 315 315 300 254 243 238 232 219 224 229 238 203 192 192
285 314 337 327 327 319 350 353 2 13 352 5 50 31 29 34 42 67 63 56 100 88 58 43 34 39 47 35 64 88 72 54 44 44 41 43 39 41 43 31 12 3 356 355 348 3 17 13 359 353 350 349 360 1 355 347 342 337 334 332 325 323 321 319 327 330 323 321 323 328 324 322 320 319 314 310 308 283 254 234 229 220 222 224 223 206 202
320 320 312 306 297 305 308 1 23 18 12 20 45 41 30 40 37 43 65 63 48 63 67 51 36 29 39 44 52 61 68 52 37 28 28 34 44 41 30 18 7 1 350 342 333 13 17 2 354 351 349 346 356 357 351 348 344 337 332 327 318 313 313 318 324 325 323 323 325 326 321 320 320 320 317 307 306 311 321 309 251 234 226 222 218 215 205
336 323 311 297 270 359 345 298 19 16 5 7 31 39 40 50 59 63 57 56 54 43 50 41 39 29 25 35 42 45 58 46 35 34 33 31 31 34 23 8 355 348 343 348 359 26 16 4 351 350 347 344 357 352 346 342 342 333 325 316 310 312 318 319 320 319 323 322 319 316 311 306 307 313 312 308 292 287 300 309 322 309 286 241 231 221 214
343 333 333 315 35 18 25 29 2 354 1 7 28 39 34 36 53 65 64 61 57 52 49 43 41 30 36 26 35 44 50 40 44 41 36 32 38 33 20 2 355 345 351 6 6 6 7 358 350 348 344 345 357 348 339 335 333 329 321 316 311 310 313 318 318 315 315 311 309 306 306 303 306 309 311 309 299 290 278 284 277 269 265 265 246 210 207
343 341 353 17 354 359 359 7 7 6 16 18 14 26 31 40 49 49 46 42 38 38 43 36 30 25 34 21 20 25 33 37 35 23 23 20 15 17 19 8 356 349 3 8 3 359 4 355 346 345 339 350 349 339 333 333 331 327 325 320 320 321 319 319 317 315 312 308 302 298 296 298 299 302 306 309 309 293 274 266 275 277 282 253 244 232 206
345 338 340 5 357 340 347 359 17 16 12 10 20 21 22 44 48 49 44 35 25 28 31 23 27 31 34 25 29 30 35 35 32 26 17 7 360 3 13 3 347 345 10 4 2 1 0 353 349 345 340 349 342 333 332 334 332 328 328 324 320 317 316 317 316 311 305 300 295 295 298 298 297 300 304 307 301 298 288 268 265 266 258 279 353 16 83
333 326 337 359 1 5 19 29 19 9 10 9 17 24 24 36 48 42 36 28 22 31 17 7 18 21 20 30 27 23 22 28 30 28 15 2 1 6 13 354 343 352 6 8 2 358 1 354 348 341 338 343 334 328 332 331 326 324 320 317 314 313 314 315 311 307 301 298 299 303 303 304 302 302 308 310 305 300 296 286 261 256 259 258 231 209 192
322 310 348 2 3 21 34 23 14 8 12 13 16 24 23 31 41 37 28 20 21 19 9 10 10 6 14 17 8 9 9 19 36 34 21 8 8 8 6 8 13 359 348 340 342 357 358 347 340 330 333 330 323 327 330 326 324 321 319 317 315 311 310 310 310 307 302 301 303 306 306 307 305 309 312 314 311 304 294 283 272 253 250 235 221 223 207
319 311 8 10 9 15 24 19 10 12 10 9 19 25 17 17 19 17 10 13 11 4 356 3 8 6 353 351 0 6 14 10 30 35 27 17 9 3 360 4 4 350 331 331 341 1 351 343 333 330 327 320 323 331 329 325 322 319 314 315 313 312 311 315 311 306 309 308 304 303 300 303 307 308 311 312 311 305 298 286 277 264 239 231 228 214 189
351 1 4 353 353 6 17 15 7 360 5 15 20 15 13 14 11 7 6 0 354 357 2 360 353 348 344 355 11 12 11 5 30 26 19 6 359 356 351 353 354 343 330 327 342 2 349 339 328 321 318 318 327 328 325 322 320 314 309 307 304 306 307 307 309 310 306 304 303 300 301 304 301 301 301 302 305 303 295 287 277 273 258 241 225 209 187
353 350 341 355 4 352 351 348 354 352 357 10 13 9 6 4 0 351 352 357 350 351 357 345 338 335 343 9 23 24 20 27 19 1 352 349 345 346 342 343 336 333 322 319 345 358 342 333 321 316 315 324 326 323 319 320 313 307 304 305 301 306 312 313 313 311 307 307 308 309 306 301 300 297 300 300 301 300 296 286 280 269 267 259 243 213 196
336 325 339 351 8 9 8 360 351 350 352 357 359 358 353 344 353 343 352 -0 355 344 335 335 334 335 352 15 29 33 35 38 1 343 337 336 334 337 338 335 343 352 352 346 352 352 336 323 315 317 326 326 321 314 315 314 308 304 308 311 315 313 309 308 310 308 311 309 312 312 310 310 309 307 301 297 291 291 289 284 274 267 265 258 256 233 209
342 339 339 341 357 4 2 6 3 357 353 347 340 336 336 339 347 350 352 351 345 341 342 340 338 340 5 13 21 26 27 12 359 346 335 333 330 330 337 351 355 356 349 339 354 346 334 325 326 334 335 324 319 317 315 318 312 314 320 323 315 312 310 308 307 307 309 313 317 315 313 309 307 304 301 297 291 290 288 284 275 263 259 249 240 226 226
349 346 338 337 345 353 353 355 355 355 344 334 326 333 338 343 348 335 339 342 348 346 340 339 351 7 4 356 359 18 18 16 357 346 331 325 326 341 347 1 8 2 347 341 338 341 328 325 330 335 333 317 316 316 316 327 331 332 331 318 309 313 312 311 313 316 315 316 315 315 314 314 312 311 311 308 299 295 289 282 277 269 257 250 236 222 217
342 351 347 342 342 344 345 339 336 339 340 343 335 325 337 343 342 347 339 344 350 349 347 350 352 337 350 353 14 14 0 359 353 347 339 341 340 348 359 25 8 357 352 328 321 323 319 326 332 333 323 319 318 318 320 329 340 340 328 320 310 310 310 310 314 315 318 317 320 317 316 317 316 315 314 314 311 305 297 289 281 271 264 252 238 227 219
353 352 350 348 338 340 337 335 339 333 347 358 341 340 346 349 341 342 345 347 347 354 354 357 344 11 15 15 6 357 356 351 345 346 346 343 341 2 331 297 37 346 289 297 306 310 318 327 332 326 322 316 318 313 325 336 343 341 328 318 314 311 317 314 315 315 319 321 318 321 325 322 319 319 316 313 315 315 310 299 285 273 267 257 249 233 228
350 353 349 344 344 339 337 334 331 331 339 5 8 352 339 343 341 345 340 353 356 4 1 358 6 16 8 8 1 353 340 337 340 343 345 341 345 347 347 341 330 335 323 319 314 316 326 328 326 318 318 315 319 321 333 342 344 334 323 322 321 325 325 320 317 319 317 319 319 324 324 323 322 323 317 319 319 321 326 324 308 280 267 259 249 241 233
352 353 348 346 339 341 336 337 334 334 344 2 1 351 347 346 339 355 360 355 347 358 3 7 6 12 6 356 342 329 326 332 344 346 342 345 5 12 5 339 342 341 324 325 328 332 328 326 324 325 318 322 321 337 341 343 341 324 328 332 342 340 336 332 334 332 327 330 328 328 323 321 322 323 324 325 323 326 326 328 330 322 292 261 252 246 233
346 348 344 346 336 336 333 333 336 346 346 358 355 349 348 347 357 358 347 346 350 356 5 4 11 11 357 348 340 341 347 348 349 352 356 357 346 347 355 333 338 323 323 332 337 332 326 326 321 317 322 335 335 344 349 345 335 332 332 336 339 341 338 336 334 330 328 327 331 330 331 328 328 323 323 324 325 330 336 339 341 343 341 327 293 251 234
348 347 350 345 343 341 344 344 342 334 327 334 351 342 351 348 356 353 354 355 360 359 4 4 360 0 359 358 355 358 353 349 350 350 349 349 321 212 297 310 321 315 330 344 341 334 330 325 326 324 346 349 347 351 350 341 333 334 335 340 337 341 339 337 335 333 333 336 341 344 343 340 338 327 331 327 329 333 343 346 350 347 341 335 328 325 316
345 347 351 351 350 345 343 340 335 336 343 335 336 337 359 2 3 1 358 -0 0 5 5 359 356 356 355 354 357 358 348 347 344 347 341 332 344 308 267 327 325 324 337 350 343 335 331 326 332 352 352 356 356 356 347 332 338 340 343 344 344 343 345 344 344 343 348 350 350 348 347 348 344 339 340 337 343 343 348 350 350 349 344 338 335 330 335
344 345 346 344 345 344 343 339 340 338 323 313 322 355 11 3 358 359 2 359 355 354 358 353 351 351 350 350 348 335 322 317 314 331 359 348 350 335 351 336 331 327 347 353 342 336 329 340 357 359 1 1 360 356 346 346 347 348 348 349 347 349 351 352 351 350 350 352 354 352 354 355 347 350 359 358 356 351 352 353 351 352 350 348 344 341 336
340 343 347 353 352 350 330 312 303 311 327 342 4 16 12 2 354 349 355 353 345 340 333 327 338 339 337 331 329 323 322 329 330 331 5 337 300 304 319 330 329 338 353 352 341 339 339 358 3 5 6 6 2 356 351 349 350 352 355 357 356 355 356 353 355 355 354 356 357 359 360 358 358 358 3 6 4 359 356 1 357 356 355 349 344 346 344
335 338 347 347 335 338 328 326 313 354 15 23 20 360 346 348 346 344 338 338 327 316 325 334 337 332 330 328 339 353 354 351 337 316 339 345 327 318 322 331 332 349 360 351 349 346 353 3 6 10 9 8 5 359 355 355 357 360 357 0 358 1 358 360 360 358 358 359 3 4 4 7 5 2 8 13 11 5 6 5 6 2 4 8 6 1 356
332 336 336 336 338 338 352 4 22 22 23 15 336 321 329 337 340 334 342 -0 355 351 355 355 352 344 349 351 347 353 270 294 349 319 352 350 328 329 329 340 344 0 1 351 350 344 355 9 13 14 11 9 3 3 0 1 1 4 3 3 2 2 3 3 3 4 2 5 5 7 8 8 6 4 3 6 10 9 5 4 5 6 4 13 15 5 4
331 327 326 337 354 -0 9 9 14 13 3 343 349 339 339 341 330 347 1 357 358 356 353 344 348 349 349 347 353 348 338 286 219 265 312 324 325 331 329 342 345 357 -0 354 352 345 353 4 11 14 12 9 6 6 8 5 6 8 8 7 4 3 3 5 5 3 7 9 6 8 7 8 4 4 5 6 6 8 8 3 359 11 7 8 8 5 356
328 340 353 353 351 352 358 3 3 349 328 334 334 327 332 346 6 356 348 351 346 332 340 338 345 352 352 344 345 344 342 344 327 294 310 328 336 340 341 348 349 0 3 358 354 352 348 355 3 11 12 6 7 11 12 12 9 11 10 6 7 5 6 8 7 10 12 12 11 11 10 6 2 2 5 12 12 15 14 11 11 12 13 11 13 18 16
335 345 341 334 324 309 285 261 270 299 316 317 312 310 333 7 343 328 332 338 352 358 -0 340 337 358 360 352 349 348 350 348 346 350 352 344 349 351 347 354 353 356 359 0 359 354 350 354 359 9 9 9 9 12 16 14 12 11 11 10 7 7 7 9 11 11 11 11 9 10 10 8 5 6 7 9 14 17 16 16 19 19 19 18 20 19 18
318 303 312 334 325 323 323 314 320 335 333 337 339 339 347 354 352 339 338 355 4 351 345 357 346 345 2 353 347 348 346 353 354 355 358 354 357 356 349 352 353 357 359 1 356 354 358 358 2 8 13 12 9 11 12 17 17 14 12 11 13 11 12 11 10 12 10 9 12 12 11 10 8 8 10 10 13 15 18 17 18 19 21 21 20 21 19